Location: St. Andrews
(45.0670°N, 67.0330°W)
Time: 14:57:49
(UTC-03:00)

Amateur Radio Satellites - All Passes

Search period start: 31 May 2016 14:27
Search period end: 01 June 2016 14:27
Location: St. Andrews, 45.0670°N, 67.0330°W

Satellite Date Start Highest point End Downlink Frequencies (MHz)
Time Altitude Azimuth
Oscar 19 31 May 14:30:58 14:36:00 50° 260° (W) 14:41:05 437.125/150
SWISSCUBE 31 May 14:36:50 14:39:41 15° 90° (E) 14:42:31 437.505
AO-85 31 May 14:40:43 14:45:28 82° 236° (SW) 14:49:45 145.980
ITUPSAT 1 31 May 14:45:09 14:48:14 17° 91° (E) 14:51:16 437.325
DX 1 31 May 14:48:47 14:51:30 16° 299° (WNW) 14:54:13 434.975-435.025
CUBEBUG 1 31 May 14:51:16 14:53:14 13° 300° (WNW) 14:55:11 437.445
SPROUT 31 May 14:57:29 15:00:49 23° 294° (WNW) 15:04:08 437.525
TISAT 1 31 May 15:05:06 15:09:14 60° 287° (WNW) 15:13:19 437.305
BEESAT 31 May 15:05:08 15:09:10 26° 95° (E) 15:13:10 436.000
JAS-2 31 May 15:14:09 15:19:33 21° 274° (W) 15:25:10 435.910
ITAMSAT 1 31 May 15:21:37 15:26:47 85° 74° (ENE) 15:32:01 435.822/435.867
Gurwin Techsat 1B 31 May 15:28:11 15:33:04 37° 263° (W) 15:37:59 435.225
AO-7 31 May 15:29:09 15:37:10 57° 63° (ENE) 15:45:15 29.400- 29.500
Cosmos 2491 31 May 15:55:00 16:03:49 86° 263° (W) 16:12:31 435.465 / 435.565
YUBILEINY 31 May 15:56:02 16:03:56 42° 86° (E) 16:11:52 435.215
AIST 2 31 May 16:07:01 16:08:17 11° 330° (NNW) 16:09:33 435.215
SWISSCUBE 31 May 16:13:09 16:17:55 65° 288° (WNW) 16:22:40 437.505
Cosmos 2504 31 May 16:15:41 16:18:16 12° 72° (ENE) 16:20:54 435.465 / 435.565
ITUPSAT 1 31 May 16:21:42 16:26:27 60° 288° (WNW) 16:31:11 437.325
RS-15 31 May 16:23:31 16:33:01 33° 104° (ESE) 16:42:55 29.354- 29.394
KKS-1 31 May 16:28:28 16:31:59 23° 94° (E) 16:35:29 437.445
BEESAT 31 May 16:42:37 16:47:02 38° 292° (WNW) 16:51:26 436.000
STARS 31 May 16:52:27 16:55:47 21° 93° (E) 16:59:05 437.465
HORYU 2 31 May 16:54:22 16:58:36 46° 70° (ENE) 17:02:50 437.375
ITAMSAT 1 31 May 17:04:38 17:06:56 13° 272° (W) 17:09:15 435.822/435.867
MOZHAYETS 4 31 May 17:14:39 17:19:12 54° 100° (E) 17:23:45
NOAA 18 31 May 17:18:51 17:22:36 19° 58° (ENE) 17:26:22 137.9125
BRITE-PL 31 May 17:19:35 17:23:17 18° 60° (ENE) 17:26:57 437.365/2234.400
AO-7 31 May 17:22:46 17:30:15 37° 263° (W) 17:37:47 29.400- 29.500
CUTE-I 31 May 17:30:01 17:33:37 19° 59° (ENE) 17:37:13 437.470
PCSat 31 May 17:33:48 17:38:36 30° 45° (NE) 17:43:22 145.827
O/OREOS (USA 219) 31 May 17:51:54 17:54:46 16° 50° (NE) 17:57:36 437.305
YUBILEINY 31 May 17:52:19 18:00:37 48° 287° (WNW) 18:08:59 435.215
Cosmos 2491 31 May 17:53:48 17:59:17 19° 284° (WNW) 18:04:46 435.465 / 435.565
NOAA 15 31 May 18:02:27 18:07:31 47° 69° (ENE) 18:12:37 137.62
Cosmos 2504 31 May 18:02:43 18:09:57 70° 94° (E) 18:17:41 435.465 / 435.565
KKS-1 31 May 18:04:35 18:08:41 37° 291° (WNW) 18:12:45 437.445
HO-68 31 May 18:08:52 18:10:04 10° 42° (NE) 18:11:15 435.675
BEESAT 2 31 May 18:20:47 18:22:00 11° 31° (NNE) 18:23:14 435.950
Cubesat XI-IV 31 May 18:23:11 18:28:17 49° 69° (ENE) 18:33:25 437.490
STARS 31 May 18:28:13 18:32:18 40° 290° (WNW) 18:36:22 437.465
HORYU 2 31 May 18:32:19 18:35:24 18° 267° (W) 18:38:30 437.375
RS-15 31 May 18:32:49 18:44:16 79° 308° (NW) 18:56:26 29.354- 29.394
BEESAT 3 31 May 18:45:31 18:48:42 22° 42° (NE) 18:51:52 437.485
CUBESAT XI-V 31 May 18:51:55 18:56:38 66° 101° (E) 19:01:17 437.345
MOZHAYETS 4 31 May 18:52:47 18:55:59 19° 297° (WNW) 18:59:10
LilacSat-2 31 May 18:55:18 18:59:06 88° 79° (ENE) 19:02:54 437.200
BRITE-PL 31 May 18:55:22 19:01:05 82° 257° (WSW) 19:06:45 437.365/2234.400
NOAA 18 31 May 18:57:16 19:02:42 71° 256° (WSW) 19:08:10 137.9125
GOMX 1 31 May 18:57:42 19:03:01 57° 73° (ENE) 19:08:11 467.674
CUTE-I 31 May 19:07:50 19:13:07 70° 258° (WSW) 19:18:27 437.470
AUBIESAT-1 31 May 19:13:22 19:15:28 14° 59° (ENE) 19:17:30 437.475
PCSat 31 May 19:17:00 19:22:14 50° 245° (WSW) 19:27:26 145.827
M-CUBED/EXP-1 PRIME 31 May 19:23:01 19:26:04 22° 62° (ENE) 19:28:58 437.505
DOVE 4 31 May 19:24:31 19:29:28 50° 72° (ENE) 19:34:11 437.250
CINEMA 3 31 May 19:24:48 19:27:35 16° 63° (ENE) 19:30:20 145.822/145.860
O/OREOS (USA 219) 31 May 19:30:12 19:34:40 68° 249° (WSW) 19:39:05 437.305
SEEDS 31 May 19:37:37 19:39:42 14° 61° (ENE) 19:41:47 437.485
CANX-2 31 May 19:42:36 19:45:54 23° 66° (ENE) 19:49:14 2200.000
NOAA 15 31 May 19:43:12 19:47:31 25° 266° (W) 19:51:52 137.62
ISS 31 May 19:47:00 19:48:14 12° 132° (SE) 19:49:28 145.825
HO-68 31 May 19:49:20 19:56:02 46° 64° (ENE) 20:02:46 435.675
BEESAT 2 31 May 19:56:46 20:00:44 57° 52° (NE) 20:04:39 435.950
Cosmos 2504 31 May 19:58:18 20:04:10 25° 297° (WNW) 20:10:22 435.465 / 435.565
YUBILEINY 31 May 19:59:54 20:00:11 10° 313° (NW) 20:00:27 435.215
Cubesat XI-IV 31 May 20:04:24 20:08:37 24° 267° (W) 20:12:51 437.490
CUTE 1.7 + AOD 2 31 May 20:08:18 20:12:09 36° 70° (ENE) 20:16:02 437.475
AAUSAT CUBESAT 2 31 May 20:12:27 20:15:16 18° 64° (ENE) 20:18:07 437.432
COMPASS 1 31 May 20:13:56 20:17:11 23° 66° (ENE) 20:20:28 437.405
STRAND 1 31 May 20:20:47 20:25:40 41° 98° (E) 20:30:31 437.568
BEESAT 3 31 May 20:22:48 20:26:35 45° 241° (WSW) 20:30:21 437.485
CUBESAT XI-V 31 May 20:30:36 20:33:30 16° 299° (WNW) 20:36:22 437.345
Oscar 11 31 May 20:32:28 20:34:35 13° 61° (ENE) 20:36:41 145.826/435.025
AIST 1 31 May 20:36:04 20:39:07 19° 86° (E) 20:42:12
GOMX 1 31 May 20:37:17 20:41:23 21° 269° (W) 20:45:24 467.674
BRITE-PL 31 May 20:38:00 20:40:18 12° 275° (W) 20:42:38 437.365/2234.400
CUSAT 1 31 May 20:45:40 20:48:06 12° 47° (NE) 20:50:25 437.405
AUBIESAT-1 31 May 20:45:47 20:49:40 53° 254° (WSW) 20:53:18 437.475
RS-15 31 May 20:48:30 20:58:59 35° 337° (NNW) 21:09:57 29.354- 29.394
ZACube-1 31 May 20:54:40 20:57:37 19° 65° (ENE) 21:00:33 437.345
M-CUBED/EXP-1 PRIME 31 May 20:56:52 21:00:31 33° 256° (WSW) 21:03:57 437.505
CINEMA 3 31 May 20:59:44 21:04:20 60° 259° (W) 21:08:45 145.822/145.860
DOVE 4 31 May 21:03:26 21:07:21 22° 267° (W) 21:11:09 437.250
AIST 2 31 May 21:06:14 21:09:43 25° 43° (NE) 21:13:11 435.215
SEEDS 31 May 21:10:44 21:14:52 65° 258° (WSW) 21:19:05 437.485
CANX-2 31 May 21:17:43 21:21:34 35° 263° (W) 21:25:29 2200.000
CUBEBUG 2 31 May 21:18:43 21:23:00 70° 75° (ENE) 21:27:12 437.445
DANDE 31 May 21:19:30 21:23:20 14° 49° (NE) 21:27:02 436.750
ISS 31 May 21:20:56 21:24:11 79° 148° (SSE) 21:27:28 145.825
FUNcube-1 31 May 21:29:04 21:32:58 39° 71° (ENE) 21:36:50 145.935
BEESAT 2 31 May 21:35:49 21:38:08 15° 249° (WSW) 21:40:26 435.950
HO-68 31 May 21:37:15 21:43:49 39° 263° (W) 21:50:27 435.675
UWE-3 31 May 21:37:36 21:41:51 78° 75° (ENE) 21:46:02 435.000/436.395/437.385
DELFI C3 31 May 21:38:59 21:42:23 28° 68° (ENE) 21:45:50 145.870
PRISM 31 May 21:41:46 21:45:49 47° 100° (E) 21:49:50 437.425
CUTE 1.7 + AOD 2 31 May 21:44:51 21:48:06 22° 267° (W) 21:51:23 437.475
AAUSAT CUBESAT 2 31 May 21:46:28 21:50:26 45° 261° (W) 21:54:27 437.432
GONETS M04 31 May 21:46:42 21:55:00 49° 88° (E) 22:03:15
COMPASS 1 31 May 21:48:46 21:52:35 34° 264° (W) 21:56:25 437.405
HUMSAT D 31 May 21:58:26 22:01:36 22° 66° (ENE) 22:04:47 437.325/437.525
STRAND 1 31 May 22:00:19 22:04:40 28° 296° (WNW) 22:09:00 437.568
PHONESAT 2.4 31 May 22:04:46 22:07:29 27° 167° (SSE) 22:10:12 2401.200-2431.200
Oscar 11 31 May 22:05:52 22:10:09 69° 258° (WSW) 22:14:28 145.826/435.025
AIST 1 31 May 22:12:13 22:16:24 42° 284° (WNW) 22:20:36
Cosmos 2499 31 May 22:23:50 22:30:49 48° 88° (E) 22:38:19 435.465 / 435.565
CUSAT 1 31 May 22:25:02 22:32:26 51° 71° (ENE) 22:38:27 437.405
ZACube-1 31 May 22:29:39 22:33:38 42° 262° (W) 22:37:36 437.345
TIGRISAT 31 May 22:37:12 22:38:00 10° 88° (E) 22:38:48 435.000
AIST 2 31 May 22:44:25 22:48:22 42° 241° (WSW) 22:52:17 435.215
ESTCUBE 1 31 May 22:52:56 22:56:12 20° 63° (ENE) 22:59:28 437.505/2401.250
VELOX 1 31 May 22:56:09 22:58:40 15° 60° (ENE) 23:01:10 145.980
ISS 31 May 22:57:57 23:00:53 30° 348° (NNW) 23:03:50 145.825
CUBEBUG 2 31 May 22:58:45 23:00:05 11° 271° (W) 23:01:25 437.445
DANDE 31 May 23:00:11 23:08:24 53° 72° (ENE) 23:15:36 436.750
RS-15 31 May 23:05:47 23:16:09 31° 12° (NNE) 23:26:43 29.354- 29.394
FUNcube-1 31 May 23:06:22 23:09:23 19° 267° (W) 23:12:23 145.935
ANTELSAT 31 May 23:09:55 23:13:33 25° 95° (E) 23:17:11 437.575/2403.000
DELFI C3 31 May 23:13:56 23:17:14 25° 266° (W) 23:20:34 145.870
UKube-1 31 May 23:15:03 23:17:38 16° 61° (ENE) 23:20:13 .
PRISM 31 May 23:17:59 23:20:47 18° 297° (WNW) 23:23:34 437.425
SO-50 31 May 23:30:04 23:34:03 25° 113° (ESE) 23:38:04 436.795
AISAT 31 May 23:31:05 23:35:05 33° 68° (ENE) 23:39:05 437.250
HUMSAT D 31 May 23:33:21 23:37:03 33° 263° (W) 23:40:47 437.325/437.525
PHONESAT 2.4 31 May 23:40:58 23:43:52 34° 184° (S) 23:46:44 2401.200-2431.200
GONETS M04 31 May 23:43:48 23:51:57 41° 290° (WNW) 00:00:07
UNISAT 6 01 Jun 00:04:58 00:09:19 85° 286° (WNW) 00:13:43 437.425
CUSAT 1 01 Jun 00:07:44 00:14:09 33° 275° (W) 00:19:33 437.405
DX 1 01 Jun 00:08:31 00:12:50 63° 73° (ENE) 00:17:12 434.975-435.025
CUBEBUG 1 01 Jun 00:10:35 00:15:01 79° 74° (ENE) 00:19:28 437.445
TIGRISAT 01 Jun 00:10:54 00:15:13 79° 286° (WNW) 00:19:36 435.000
50 SAT 01 Jun 00:14:40 00:18:17 82° 257° (WSW) 00:21:59 437.505
SPROUT 01 Jun 00:16:27 00:20:22 36° 69° (ENE) 00:24:18 437.525
Cosmos 2499 01 Jun 00:17:21 00:24:07 37° 291° (WNW) 00:31:25 435.465 / 435.565
TISAT 1 01 Jun 00:25:05 00:27:18 14° 61° (ENE) 00:29:31 437.305
QB50P1 01 Jun 00:28:12 00:31:58 31° 97° (E) 00:35:42 145.935-145.965
POPSAT HIP 1 01 Jun 00:28:17 00:32:01 31° 96° (E) 00:35:45 437.405
ESTCUBE 1 01 Jun 00:28:18 00:32:40 48° 261° (W) 00:37:05 437.505/2401.250
VELOX 1 01 Jun 00:30:10 00:34:37 67° 258° (WSW) 00:39:04 145.980
QB50P2 01 Jun 00:32:07 00:36:01 36° 97° (E) 00:39:55 145.880/145.840
POLYITAN 1 01 Jun 00:34:36 00:38:31 37° 98° (E) 00:42:25 437.675
ISS 01 Jun 00:35:07 00:37:58 26° 8° (N) 00:40:48 145.825
JAS-2 01 Jun 00:37:41 00:40:24 12° 80° (E) 00:43:01 435.910
DANDE 01 Jun 00:43:29 00:50:59 39° 274° (W) 00:57:39 436.750
NANOSAT C BR1 01 Jun 00:43:43 00:47:44 44° 99° (E) 00:51:44 145.865
ANTELSAT 01 Jun 00:46:25 00:50:17 33° 292° (WNW) 00:54:13 437.575/2403.000
UKube-1 01 Jun 00:48:56 00:53:13 60° 259° (WSW) 00:57:32 .
AISAT 01 Jun 01:07:46 01:11:34 27° 265° (W) 01:15:23 437.250
SO-50 01 Jun 01:09:31 01:14:18 50° 311° (NW) 01:19:04 436.795
PHONESAT 2.4 01 Jun 01:17:52 01:20:08 18° 200° (SSW) 01:22:24 2401.200-2431.200
BUGSAT 1 01 Jun 01:18:16 01:22:10 45° 99° (E) 01:26:01 437.445
RS-15 01 Jun 01:19:52 01:31:59 59° 43° (NE) 01:44:07 29.354- 29.394
DUCHIFAT 1 01 Jun 01:19:54 01:24:05 79° 285° (WNW) 01:28:15 145.980
UNISAT 6 01 Jun 01:44:56 01:45:21 10° 302° (WNW) 01:45:45 437.425
SWISSCUBE 01 Jun 01:44:57 01:48:40 23° 63° (ENE) 01:52:25 437.505
DX 1 01 Jun 01:47:14 01:49:27 14° 270° (W) 01:51:41 434.975-435.025
CUBEBUG 1 01 Jun 01:50:40 01:51:51 11° 272° (W) 01:53:02 437.445
SPROUT 01 Jun 01:53:02 01:56:25 22° 266° (W) 01:59:48 437.525
ITUPSAT 1 01 Jun 01:53:35 01:57:26 25° 64° (ENE) 02:01:18 437.325
TISAT 1 01 Jun 01:58:17 02:02:28 63° 259° (W) 02:06:39 437.305
YUBILEINY 01 Jun 02:03:24 02:10:05 23° 61° (ENE) 02:16:44 435.215
QB50P1 01 Jun 02:04:11 02:07:38 25° 294° (WNW) 02:11:04 145.935-145.965
POPSAT HIP 1 01 Jun 02:04:15 02:07:43 25° 293° (WNW) 02:11:10 437.405
QB50P2 01 Jun 02:08:22 02:11:38 22° 295° (WNW) 02:14:54 145.880/145.840
POLYITAN 1 01 Jun 02:10:54 02:14:07 22° 295° (WNW) 02:17:20 437.675
ISS 01 Jun 02:11:31 02:14:48 70° 28° (NNE) 02:18:03 145.825
BEESAT 01 Jun 02:13:17 02:17:39 38° 68° (ENE) 02:22:03 436.000
JAS-2 01 Jun 02:19:35 02:26:57 71° 101° (ESE) 02:33:27 435.910
NANOSAT C BR1 01 Jun 02:20:14 02:23:10 19° 296° (WNW) 02:26:06 145.865
Oscar 19 01 Jun 02:40:20 02:45:21 49° 100° (E) 02:50:18 437.125/150
SO-50 01 Jun 02:53:31 02:55:56 13° 333° (NNW) 02:58:20 436.795
BUGSAT 1 01 Jun 02:54:36 02:57:13 17° 297° (WNW) 02:59:48 437.445
Cosmos 2491 01 Jun 03:04:31 03:10:58 23° 78° (ENE) 03:17:23 435.465 / 435.565
SWISSCUBE 01 Jun 03:21:40 03:26:12 44° 261° (W) 03:30:47 437.505
KKS-1 01 Jun 03:28:18 03:32:05 28° 66° (ENE) 03:35:52 437.445
ITUPSAT 1 01 Jun 03:30:34 03:35:04 41° 262° (W) 03:39:36 437.325
AO-7 01 Jun 03:30:54 03:34:47 14° 86° (E) 03:38:41 29.400- 29.500
RS-15 01 Jun 03:32:49 03:44:29 53° 248° (WSW) 03:56:08 29.354- 29.394
ITAMSAT 1 01 Jun 03:32:55 03:37:15 26° 94° (E) 03:41:32 435.822/435.867
Gurwin Techsat 1B 01 Jun 03:41:40 03:47:01 76° 103° (ESE) 03:52:20 435.225
ISS 01 Jun 03:48:36 03:50:56 18° 225° (SW) 03:53:15 145.825
STARS 01 Jun 03:50:56 03:54:31 25° 65° (ENE) 03:58:06 437.465
BEESAT 01 Jun 03:51:34 03:55:31 26° 265° (W) 03:59:31 436.000
Cosmos 2504 01 Jun 03:51:54 03:59:20 32° 67° (ENE) 04:06:59 435.465 / 435.565
YUBILEINY 01 Jun 03:59:16 04:08:04 86° 265° (W) 04:16:53 435.215
JAS-2 01 Jun 04:05:23 04:11:14 26° 303° (WNW) 04:16:38 435.910
MOZHAYETS 4 01 Jun 04:18:13 04:22:43 64° 74° (ENE) 04:27:16
Oscar 19 01 Jun 04:20:18 04:24:22 24° 297° (WNW) 04:28:25 437.125/150
CUBESAT XI-V 01 Jun 04:23:50 04:24:55 11° 57° (ENE) 04:26:00 437.345
AO-85 01 Jun 04:56:32 05:00:54 25° 112° (ESE) 05:05:13 145.980
Cosmos 2491 01 Jun 04:57:54 05:06:45 81° 279° (W) 05:15:37 435.465 / 435.565
KKS-1 01 Jun 05:04:34 05:08:33 32° 263° (W) 05:12:35 437.445
ITAMSAT 1 01 Jun 05:11:56 05:16:54 45° 291° (WNW) 05:21:50 435.822/435.867
AO-7 01 Jun 05:20:41 05:29:04 69° 106° (ESE) 05:37:24 29.400- 29.500
Gurwin Techsat 1B 01 Jun 05:22:58 05:26:21 17° 302° (WNW) 05:29:45 435.225
STARS 01 Jun 05:26:41 05:30:44 35° 263° (W) 05:34:46 437.465
Cosmos 2504 01 Jun 05:44:52 05:53:15 65° 268° (W) 06:01:59 435.465 / 435.565
RS-15 01 Jun 05:52:29 05:53:49 10° 270° (W) 05:55:10 29.354- 29.394
CUBESAT XI-V 01 Jun 05:56:48 06:01:28 79° 75° (ENE) 06:06:12 437.345
MOZHAYETS 4 01 Jun 05:57:54 06:00:20 14° 271° (W) 06:02:48
YUBILEINY 01 Jun 05:58:02 06:03:31 19° 284° (WNW) 06:09:02 435.215
STRAND 1 01 Jun 06:03:51 06:05:19 11° 54° (NE) 06:06:48 437.568
NOAA 15 01 Jun 06:17:00 06:19:53 15° 89° (E) 06:22:45 137.62
HORYU 2 01 Jun 06:19:24 06:23:51 71° 103° (ESE) 06:28:16 437.375
SO-50 01 Jun 06:20:02 06:21:35 11° 23° (NNE) 06:23:09 436.795
AO-85 01 Jun 06:35:44 06:41:07 59° 309° (NW) 06:46:21 145.980
Cubesat XI-IV 01 Jun 06:39:24 06:42:48 17° 90° (E) 06:46:10 437.490
Cosmos 2491 01 Jun 06:59:12 07:05:09 19° 302° (WNW) 07:11:08 435.465 / 435.565
BRITE-PL 01 Jun 06:59:30 07:03:47 28° 93° (E) 07:07:46 437.365/2234.400
GOMX 1 01 Jun 07:00:10 07:01:57 12° 86° (E) 07:03:42 467.674
AO-7 01 Jun 07:14:10 07:21:15 32° 306° (NW) 07:28:22 29.400- 29.500
NOAA 18 01 Jun 07:17:17 07:22:28 41° 99° (E) 07:27:39 137.9125
CUTE-I 01 Jun 07:22:53 07:27:56 40° 98° (E) 07:32:57 437.470
CUBESAT XI-V 01 Jun 07:37:37 07:39:27 12° 273° (W) 07:41:17 437.345
STRAND 1 01 Jun 07:38:31 07:43:35 72° 73° (ENE) 07:48:42 437.568
Cosmos 2504 01 Jun 07:41:29 07:45:00 13° 287° (WNW) 07:48:36 435.465 / 435.565
GONETS M04 01 Jun 07:54:29 08:01:36 27° 63° (ENE) 08:08:40
NOAA 15 01 Jun 07:54:57 08:00:17 78° 286° (WNW) 08:05:32 137.62
HORYU 2 01 Jun 07:57:32 07:59:52 14° 300° (WNW) 08:02:10 437.375
SO-50 01 Jun 07:58:56 08:03:25 40° 46° (NE) 08:07:45 436.795
LilacSat-2 01 Jun 08:00:52 08:04:40 79° 282° (WNW) 08:08:27 437.200
O/OREOS (USA 219) 01 Jun 08:09:04 08:09:57 10° 97° (E) 08:10:49 437.305
Cosmos 2499 01 Jun 08:11:51 08:18:21 23° 61° (ENE) 08:24:55 435.465 / 435.565
AIST 1 01 Jun 08:16:54 08:21:11 55° 78° (ENE) 08:25:24
Cubesat XI-IV 01 Jun 08:18:02 08:23:23 71° 287° (WNW) 08:28:44 437.490
AO-85 01 Jun 08:19:23 08:22:40 16° 330° (NNW) 08:25:51 145.980
PCSat 01 Jun 08:19:40 08:22:46 16° 104° (ESE) 08:25:52 145.827
PRISM 01 Jun 08:32:51 08:36:49 44° 71° (ENE) 08:40:49 437.425
GOMX 1 01 Jun 08:36:06 08:40:41 69° 286° (WNW) 08:44:58 467.674
BRITE-PL 01 Jun 08:37:49 08:42:20 34° 293° (WNW) 08:46:31 437.365/2234.400
CINEMA 3 01 Jun 08:52:48 08:56:14 24° 94° (E) 08:59:39 145.822/145.860
SEEDS 01 Jun 08:53:25 08:56:24 18° 92° (E) 08:59:22 437.485
NOAA 18 01 Jun 08:58:14 09:02:59 31° 296° (WNW) 09:07:44 137.9125
DOVE 4 01 Jun 08:59:14 09:03:34 83° 284° (WNW) 09:07:43 437.250
CANX-2 01 Jun 09:00:25 09:04:19 33° 96° (E) 09:08:13 2200.000
HO-68 01 Jun 09:02:00 09:08:39 39° 97° (E) 09:15:15 435.675
CUTE-I 01 Jun 09:03:12 09:07:50 31° 296° (WNW) 09:12:28 437.470
CUBEBUG 2 01 Jun 09:09:15 09:10:52 12° 89° (E) 09:12:29 437.445
STRAND 1 01 Jun 09:20:24 09:23:18 15° 271° (W) 09:26:13 437.568
CUTE 1.7 + AOD 2 01 Jun 09:26:27 09:30:41 55° 100° (E) 09:34:54 437.475
UWE-3 01 Jun 09:26:38 09:28:36 13° 90° (E) 09:30:35 435.000/436.395/437.385
AAUSAT CUBESAT 2 01 Jun 09:27:00 09:30:26 24° 94° (E) 09:33:50 437.432
COMPASS 1 01 Jun 09:29:22 09:33:08 31° 96° (E) 09:36:54 437.405
UNISAT 6 01 Jun 09:32:07 09:33:48 12° 60° (ENE) 09:35:29 437.425
NOAA 15 01 Jun 09:36:56 09:39:11 13° 305° (NW) 09:41:25 137.62
TIGRISAT 01 Jun 09:37:33 09:39:31 13° 60° (ENE) 09:41:28 435.000
SO-50 01 Jun 09:39:43 09:43:45 29° 245° (WSW) 09:47:41 436.795
O/OREOS (USA 219) 01 Jun 09:44:03 09:48:37 85° 295° (WNW) 09:53:11 437.305
GONETS M04 01 Jun 09:50:39 09:59:20 74° 266° (W) 10:07:58
Oscar 11 01 Jun 09:51:51 09:54:57 19° 92° (E) 09:58:02 145.826/435.025
AIST 1 01 Jun 09:56:04 09:58:16 14° 276° (W) 10:00:28
AUBIESAT-1 01 Jun 09:56:48 10:00:07 73° 109° (ESE) 10:03:27 437.475
PCSat 01 Jun 10:00:00 10:05:26 82° 302° (WNW) 10:10:55 145.827
Cubesat XI-IV 01 Jun 10:00:42 10:02:31 12° 306° (NW) 10:04:19 437.490
Cosmos 2499 01 Jun 10:03:55 10:12:39 89° 77° (ENE) 10:21:35 435.465 / 435.565
M-CUBED/EXP-1 PRIME 01 Jun 10:08:13 10:11:28 61° 291° (WNW) 10:14:43 437.505
PRISM 01 Jun 10:09:33 10:12:21 17° 268° (W) 10:15:10 437.425
ANTELSAT 01 Jun 10:10:48 10:14:29 28° 67° (ENE) 10:18:09 437.575/2403.000
ZACube-1 01 Jun 10:15:42 10:19:24 29° 96° (E) 10:23:09 437.345
BEESAT 3 01 Jun 10:16:14 10:18:50 17° 112° (ESE) 10:21:27 437.485
SEEDS 01 Jun 10:28:16 10:32:19 44° 289° (WNW) 10:36:22 437.485
CINEMA 3 01 Jun 10:29:47 10:33:25 30° 292° (WNW) 10:37:03 145.822/145.860
CANX-2 01 Jun 10:36:32 10:40:03 25° 293° (WNW) 10:43:33 2200.000
DUCHIFAT 1 01 Jun 10:41:20 10:42:28 11° 59° (ENE) 10:43:36 145.980
CUBEBUG 2 01 Jun 10:43:46 10:47:56 65° 286° (WNW) 10:52:09 437.445
DELFI C3 01 Jun 10:48:55 10:52:38 34° 97° (E) 10:56:20 145.870
HO-68 01 Jun 10:49:41 10:56:27 46° 296° (WNW) 11:03:12 435.675
FUNcube-1 01 Jun 10:50:33 10:54:45 65° 101° (ESE) 10:59:01 145.935
JAS-2 01 Jun 10:54:05 10:55:59 11° 44° (NE) 10:57:51 435.910
UWE-3 01 Jun 11:01:18 11:05:28 61° 286° (WNW) 11:09:41 435.000/436.395/437.385
AAUSAT CUBESAT 2 01 Jun 11:02:11 11:05:57 33° 291° (WNW) 11:09:43 437.432
CUTE 1.7 + AOD 2 01 Jun 11:03:27 11:06:06 16° 297° (WNW) 11:08:45 437.475
COMPASS 1 01 Jun 11:05:06 11:08:36 26° 293° (WNW) 11:12:06 437.405
UNISAT 6 01 Jun 11:05:37 11:09:56 77° 257° (WSW) 11:14:14 437.425
TIGRISAT 01 Jun 11:11:22 11:15:40 71° 258° (WSW) 11:19:56 435.000
HUMSAT D 01 Jun 11:14:21 11:18:06 31° 96° (E) 11:21:51 437.325/437.525
QB50P1 01 Jun 11:22:30 11:26:13 31° 68° (ENE) 11:29:57 145.935-145.965
POPSAT HIP 1 01 Jun 11:22:38 11:26:20 30° 68° (ENE) 11:30:03 437.405
QB50P2 01 Jun 11:26:32 11:30:24 35° 69° (ENE) 11:34:16 145.880/145.840
O/OREOS (USA 219) 01 Jun 11:26:45 11:28:46 13° 314° (NW) 11:30:46 437.305
Oscar 11 01 Jun 11:27:09 11:31:18 44° 289° (WNW) 11:35:25 145.826/435.025
CUSAT 1 01 Jun 11:27:20 11:33:57 48° 90° (E) 11:41:30 437.405
BEESAT 2 01 Jun 11:27:51 11:31:43 54° 121° (ESE) 11:35:38 435.950
POLYITAN 1 01 Jun 11:29:02 11:32:54 36° 69° (ENE) 11:36:46 437.675
NANOSAT C BR1 01 Jun 11:37:34 11:41:32 42° 71° (ENE) 11:45:31 145.865
PCSat 01 Jun 11:45:58 11:49:42 18° 323° (NW) 11:53:28 145.827
AO-85 01 Jun 11:47:23 11:48:25 11° 20° (NNE) 11:49:25 145.980
ANTELSAT 01 Jun 11:47:26 11:51:10 28° 264° (W) 11:54:53 437.575/2403.000
GONETS M04 01 Jun 11:50:09 11:54:31 15° 287° (WNW) 11:58:54
ZACube-1 01 Jun 11:52:03 11:55:38 27° 292° (WNW) 11:59:16 437.345
BEESAT 3 01 Jun 11:52:20 11:56:09 50° 309° (NW) 12:00:01 437.485
Cosmos 2499 01 Jun 11:58:38 12:04:39 21° 282° (WNW) 12:10:48 435.465 / 435.565
CUBEBUG 1 01 Jun 11:59:08 12:01:01 12° 89° (E) 12:02:53 437.445
DANDE 01 Jun 12:09:34 12:15:28 47° 89° (E) 12:22:49 436.750
BUGSAT 1 01 Jun 12:09:37 12:13:33 42° 71° (ENE) 12:17:29 437.445
DUCHIFAT 1 01 Jun 12:13:19 12:17:31 84° 255° (WSW) 12:21:45 145.980
ESTCUBE 1 01 Jun 12:18:53 12:22:53 30° 96° (E) 12:26:52 437.505/2401.250
VELOX 1 01 Jun 12:19:05 12:22:19 20° 93° (E) 12:25:32 145.980
Oscar 19 01 Jun 12:23:08 12:25:38 14° 56° (ENE) 12:28:09 437.125/150
DELFI C3 01 Jun 12:24:12 12:27:18 21° 294° (WNW) 12:30:24 145.870
FUNcube-1 01 Jun 12:28:23 12:30:32 14° 298° (WNW) 12:32:40 145.935
JAS-2 01 Jun 12:31:54 12:39:00 44° 64° (ENE) 12:46:20 435.910
UKube-1 01 Jun 12:34:49 12:37:55 19° 93° (E) 12:41:00 .
HO-68 01 Jun 12:41:03 12:42:26 11° 317° (NW) 12:43:49 435.675
AIST 2 01 Jun 12:44:06 12:47:22 23° 114° (ESE) 12:50:40 435.215
HUMSAT D 01 Jun 12:50:09 12:53:37 25° 293° (WNW) 12:57:06 437.325/437.525
AISAT 01 Jun 12:55:08 12:59:25 48° 99° (E) 13:03:40 437.250
QB50P1 01 Jun 12:58:29 13:02:01 25° 265° (W) 13:05:33 145.935-145.965
POPSAT HIP 1 01 Jun 12:58:36 13:02:08 26° 265° (W) 13:05:41 437.405
QB50P2 01 Jun 13:03:00 13:06:18 22° 266° (W) 13:09:37 145.880/145.840
POLYITAN 1 01 Jun 13:05:33 13:08:49 21° 266° (W) 13:12:05 437.675
BEESAT 2 01 Jun 13:06:51 13:09:52 20° 320° (NW) 13:12:54 435.950
CUSAT 1 01 Jun 13:09:32 13:16:12 41° 292° (WNW) 13:23:43 437.405
Cosmos 2491 01 Jun 13:11:46 13:15:24 13° 50° (NE) 13:19:00 435.465 / 435.565
NANOSAT C BR1 01 Jun 13:14:30 13:17:28 19° 268° (W) 13:20:27 145.865
50 SAT 01 Jun 13:15:32 13:19:17 85° 284° (WNW) 13:23:01 437.505
AO-85 01 Jun 13:26:04 13:30:27 34° 43° (NE) 13:34:28 145.980
Gurwin Techsat 1B 01 Jun 13:26:40 13:30:39 22° 61° (ENE) 13:34:37 435.225
DX 1 01 Jun 13:30:42 13:35:05 90° 93° (E) 13:39:25 434.975-435.025
CUBEBUG 1 01 Jun 13:33:25 13:37:46 67° 287° (WNW) 13:42:04 437.445
BEESAT 3 01 Jun 13:34:31 13:34:48 10° 330° (NNW) 13:35:05 437.485
SPROUT 01 Jun 13:35:51 13:40:01 52° 100° (E) 13:44:10 437.525
TISAT 1 01 Jun 13:41:13 13:43:55 17° 92° (E) 13:46:37 437.305
BUGSAT 1 01 Jun 13:46:13 13:49:08 18° 267° (W) 13:52:01 437.445
DANDE 01 Jun 13:52:37 13:58:32 37° 294° (WNW) 14:05:45 436.750
VELOX 1 01 Jun 13:54:48 13:59:00 43° 290° (WNW) 14:03:09 145.980
ESTCUBE 1 01 Jun 13:55:40 13:59:39 30° 293° (WNW) 14:03:36 437.505/2401.250
Oscar 19 01 Jun 13:58:59 14:04:11 86° 72° (ENE) 14:09:25 437.125/150
UKube-1 01 Jun 14:10:04 14:14:10 43° 290° (WNW) 14:18:15 .
